Weather History for Kirksville, MO

Change the Weather History Date:

Tuesday, December 11, 2012

  Actual Average Record
Temperature  
Mean Temperature 28 °F 30 °F  
Max Temperature 40 °F 38 °F 70 °F (1949)
Min Temperature 15 °F 21 °F -10 °F (1972)
Degree Days  
Heating Degree Days 37 35  
Month to date heating degree days 263 370  
Since 1 July heating degree days 1533 1591  
Cooling Degree Days 0 0  
Month to date cooling degree days 0 0  
Year to date cooling degree days 1321 939  
Moisture  
Dew Point 16 °F    
Average Humidity 64    
Maximum Humidity 88    
Minimum Humidity 40    
Precipitation  
Precipitation 0.00 in 0.07 in 1.15 in (1949)
Month to date precipitation 0.15 0.72  
Year to date precipitation 26.57 38.28  
Sea Level Pressure  
Sea Level Pressure 30.10 in    
Wind  
Wind Speed 7 mph (SW)    
Max Wind Speed 10 mph    
Max Gust Speed 16 mph    
Visibility 10 miles    
Events      
T = Trace of Precipitation, MM = Missing Value Source: NWS Daily Summary

Daily Weather History Graph

Daily Weather History Graph

Search for Another Location

Airport:

Trip Planner

Search our weather history database for the weather conditions in past years. The results will help you decide how hot, cold, wet, or windy it might be!

Date:

Astronomy

Dec. 11, 2012 Rise Set
Actual Time 7:22 AM CST 4:44 PM CST
Civil Twilight 6:52 AM CST 5:15 PM CST
Nautical Twilight 6:18 AM CST 5:49 PM CST
Astronomical Twilight 5:45 AM CST 6:22 PM CST
Moon 5:17 AM CST (12/11) 3:24 PM CST (12/11)
Length of Visible Light 10h 23m
Length of Day
9h 22m
Waning Crescent, 4% of the Moon is Illuminated
Dec 11
Waning Crescent
Dec 13
New
Dec 19
First Quarter
Dec 28
Full
Jan 4
Last Quarter

Hourly Weather History & Observations

Time (CST) Temp. Windchill Dew Point Humidity Pressure Visibility Wind Dir Wind Speed Gust Speed Precip Events Conditions
12:55 AM 16.0 °F 8.8 °F 12.0 °F 84% 30.05 in 10.0 mi SSW 4.6 mph - N/A   Clear
1:55 AM 15.1 °F 5.2 °F 10.9 °F 84% 30.05 in 10.0 mi South 6.9 mph - N/A   Clear
2:55 AM 17.1 °F 7.6 °F 12.0 °F 81% 30.05 in 10.0 mi SSW 6.9 mph - N/A   Clear
3:55 AM 17.1 °F 8.7 °F 12.0 °F 81% 30.04 in 10.0 mi SSW 5.8 mph - N/A   Clear
4:55 AM 18.0 °F 8.7 °F 12.9 °F 81% 30.04 in 10.0 mi SSW 6.9 mph - N/A   Clear
5:55 AM 18.0 °F 8.7 °F 12.9 °F 81% 30.05 in 10.0 mi SW 6.9 mph - N/A   Clear
6:55 AM 18.0 °F 7.7 °F 12.0 °F 78% 30.06 in 10.0 mi SW 8.1 mph - N/A   Clear
7:55 AM 19.0 °F 10.0 °F 12.9 °F 77% 30.07 in 10.0 mi WSW 6.9 mph - N/A   Clear
8:55 AM 23.0 °F 13.1 °F 14.0 °F 68% 30.09 in 10.0 mi WSW 9.2 mph - N/A   Mostly Cloudy
9:55 AM 26.1 °F 19.4 °F 16.0 °F 66% 30.10 in 10.0 mi West 5.8 mph - N/A   Overcast
10:55 AM 32.0 °F 26.4 °F 18.0 °F 56% 30.11 in 10.0 mi WNW 5.8 mph - N/A   Scattered Clouds
11:55 AM 36.0 °F - 19.0 °F 50% 30.10 in 10.0 mi Calm Calm - N/A   Clear
12:55 PM 37.0 °F 31.0 °F 19.0 °F 48% 30.10 in 10.0 mi West 8.1 mph - N/A   Clear
1:55 PM 39.0 °F 33.4 °F 19.0 °F 45% 30.08 in 10.0 mi WSW 8.1 mph - N/A   Clear
2:55 PM 39.0 °F 32.3 °F 18.0 °F 43% 30.08 in 10.0 mi West 10.4 mph - N/A   Clear
3:55 PM 37.9 °F 32.1 °F 19.0 °F 47% 30.09 in 10.0 mi SW 8.1 mph - N/A   Clear
4:55 PM 34.0 °F 28.8 °F 18.0 °F 52% 30.11 in 10.0 mi SW 5.8 mph - N/A   Clear
5:55 PM 30.0 °F 24.1 °F 18.0 °F 61% 30.12 in 10.0 mi SSW 5.8 mph - N/A   Clear
6:55 PM 28.0 °F 21.7 °F 18.0 °F 66% 30.14 in 10.0 mi South 5.8 mph - N/A   Clear
7:55 PM 26.1 °F 19.4 °F 17.1 °F 69% 30.15 in 10.0 mi SSW 5.8 mph - N/A   Clear
8:55 PM 27.0 °F 19.5 °F 18.0 °F 69% 30.16 in 10.0 mi South 6.9 mph - N/A   Clear
9:55 PM 27.0 °F 19.5 °F 19.0 °F 72% 30.17 in 10.0 mi SSW 6.9 mph - N/A   Clear
10:55 PM 28.0 °F 20.8 °F 19.0 °F 69% 30.18 in 10.0 mi SSW 6.9 mph - N/A   Clear
11:55 PM 27.0 °F 20.5 °F 18.0 °F 69% 30.19 in 10.0 mi SSW 5.8 mph - N/A   Clear